TimeIST,TemperatureF,Dew PointF,Humidity,Sea Level PressureIn,VisibilityMPH,Wind Direction,Wind SpeedMPH,Gust SpeedMPH,PrecipitationIn,Events,Conditions,WindDirDegrees,DateUTC
12:00 AM,69.8,41.0,35,29.92,1.6,Calm,Calm,-,N/A,,Haze,0,2013-03-11 18:30:00
1:00 AM,69.8,42.8,38,29.92,1.6,Calm,Calm,-,N/A,,Haze,0,2013-03-11 19:30:00
2:00 AM,69.8,41.0,35,29.89,1.6,Calm,Calm,-,N/A,,Haze,0,2013-03-11 20:30:00
2:30 AM,69,43,28,29.87,1,Calm,Calm,,,,Haze,,2013-03-11 21:00:00
2:30 AM,68.0,42.8,40,29.89,1.6,Calm,Calm,-,N/A,,Haze,0,2013-03-11 21:00:00
5:00 AM,68.0,44.6,43,29.89,1.6,Calm,Calm,-,N/A,,Haze,0,2013-03-11 23:30:00
6:00 AM,68.0,46.4,46,29.89,1.6,Calm,Calm,-,N/A,,Haze,0,2013-03-12 00:30:00
7:00 AM,66.2,46.4,49,29.92,1.6,Calm,Calm,-,N/A,,Haze,0,2013-03-12 01:30:00
8:00 AM,69.8,48.2,46,29.95,1.6,Calm,Calm,-,N/A,,Haze,0,2013-03-12 02:30:00
8:30 AM,74,50,32,29.89,1,Calm,Calm,,,,Haze,,2013-03-12 03:00:00
9:00 AM,78.8,48.2,34,29.95,1.9,East,5.8,-,N/A,,Haze,90,2013-03-12 03:30:00
10:00 AM,80.6,44.6,28,29.98,2.5,Variable,3.5,-,N/A,,Haze,0,2013-03-12 04:30:00
11:00 AM,84.2,41.0,22,29.98,2.5,SW,5.8,-,N/A,,Haze,230,2013-03-12 05:30:00
11:30 AM,87,42,12,29.88,2,SW,5.8,,,,Haze,230,2013-03-12 06:00:00
12:00 PM,86.0,39.2,19,29.95,2.5,SW,6.9,-,N/A,,Haze,220,2013-03-12 06:30:00
1:00 PM,87.8,39.2,18,29.92,2.5,Variable,4.6,-,N/A,,Haze,0,2013-03-12 07:30:00
2:30 PM,91,37,8,29.80,2,West,9.2,,,,Haze,270,2013-03-12 09:00:00
4:00 PM,91.4,37.4,15,29.86,3.1,North,5.8,-,N/A,,Haze,350,2013-03-12 10:30:00
5:00 PM,89.6,35.6,15,29.86,3.1,NW,6.9,-,N/A,,Haze,310,2013-03-12 11:30:00
6:00 PM,87.8,33.8,15,29.86,3.1,NW,4.6,-,N/A,,Haze,320,2013-03-12 12:30:00
7:00 PM,86.0,37.4,18,29.86,2.5,North,3.5,-,N/A,,Haze,10,2013-03-12 13:30:00
8:00 PM,80.6,41.0,24,29.89,2.2,Calm,Calm,-,N/A,,Haze,0,2013-03-12 14:30:00
8:30 PM,81,43,16,29.81,1,Calm,Calm,,,,Haze,,2013-03-12 15:00:00
9:00 PM,77.0,44.6,32,29.89,2.2,Calm,Calm,-,N/A,,Haze,0,2013-03-12 15:30:00
10:00 PM,78.8,46.4,32,29.92,2.2,NNE,5.8,-,N/A,,Haze,30,2013-03-12 16:30:00
11:00 PM,78.8,48.2,34,29.92,2.2,NE,6.9,-,N/A,,Haze,50,2013-03-12 17:30:00
11:30 PM,77,47,24,29.85,1,East,4.6,,,,Haze,90,2013-03-12 18:00:00